Time,TemperatureF,DewpointF,PressureIn,WindDirection,WindDirectionDegrees,WindSpeedMPH,WindSpeedGustMPH,Humidity,HourlyPrecipIn,Conditions,Clouds,dailyrainin,SoftwareType,DateUTC
2016-09-30 00:05:00,52.0,30.0,-100.00,ESE,121,4.0,8.0,43,-99.99,,,-99.99,,2016-09-30 07:05:00,
2016-09-30 00:15:00,52.0,30.0,-100.00,ESE,121,4.0,8.0,43,-99.99,,,-99.99,,2016-09-30 07:15:00,
2016-09-30 00:24:00,52.0,30.0,-100.00,ESE,121,4.0,-999.0,43,-99.99,,,-99.99,,2016-09-30 07:24:00,
2016-09-30 01:56:00,53.0,37.0,-100.00,NNE,27,2.0,10.0,54,-99.99,,,-99.99,,2016-09-30 08:56:00,
2016-09-30 02:13:00,53.0,37.0,-100.00,NNE,27,2.0,10.0,54,-99.99,,,-99.99,,2016-09-30 09:13:00,
2016-09-30 02:23:00,53.0,37.0,-100.00,NNE,27,2.0,10.0,54,-99.99,,,-99.99,,2016-09-30 09:23:00,
2016-09-30 02:32:00,55.0,38.0,-100.00,SSW,200,2.0,-999.0,53,-99.99,,,-99.99,,2016-09-30 09:32:00,
2016-09-30 02:57:00,55.0,38.0,-100.00,SSW,200,2.0,15.0,53,-99.99,,,-99.99,,2016-09-30 09:57:00,
2016-09-30 03:04:00,55.0,38.0,-100.00,SSW,200,2.0,15.0,53,-99.99,,,-99.99,,2016-09-30 10:04:00,
2016-09-30 03:14:00,55.0,38.0,-100.00,SSW,200,2.0,15.0,53,-99.99,,,-99.99,,2016-09-30 10:14:00,
2016-09-30 03:26:00,55.0,38.0,-100.00,SSW,200,2.0,15.0,53,-99.99,,,-99.99,,2016-09-30 10:26:00,
2016-09-30 04:00:00,50.0,38.0,-100.00,ENE,74,4.0,-999.0,64,-99.99,,,-99.99,,2016-09-30 11:00:00,
2016-09-30 04:05:00,50.0,38.0,-100.00,ENE,74,4.0,7.0,64,-99.99,,,-99.99,,2016-09-30 11:05:00,
2016-09-30 04:14:00,50.0,38.0,-100.00,ENE,74,4.0,7.0,64,-99.99,,,-99.99,,2016-09-30 11:14:00,
2016-09-30 04:23:00,50.0,38.0,-100.00,ENE,74,4.0,-999.0,64,-99.99,,,-99.99,,2016-09-30 11:23:00,
2016-09-30 04:56:00,48.0,37.0,-100.00,ESE,121,3.0,7.0,66,-99.99,,,-99.99,,2016-09-30 11:56:00,
2016-09-30 05:06:00,48.0,37.0,-100.00,ESE,121,3.0,7.0,66,-99.99,,,-99.99,,2016-09-30 12:06:00,
2016-09-30 05:13:00,48.0,37.0,-100.00,ESE,121,3.0,7.0,66,-99.99,,,-99.99,,2016-09-30 12:13:00,
2016-09-30 05:24:00,48.0,37.0,-100.00,ESE,121,3.0,7.0,66,-99.99,,,-99.99,,2016-09-30 12:24:00,
2016-09-30 05:32:00,53.0,39.0,-100.00,South,172,9.0,12.0,60,-99.99,,,-99.99,,2016-09-30 12:32:00,
2016-09-30 05:56:00,53.0,39.0,-100.00,South,172,9.0,12.0,60,-99.99,,,-99.99,,2016-09-30 12:56:00,
2016-09-30 06:05:00,53.0,39.0,-100.00,South,172,9.0,12.0,60,-99.99,,,-99.99,,2016-09-30 13:05:00,
2016-09-30 06:14:00,53.0,39.0,-100.00,South,172,9.0,12.0,60,-99.99,,,-99.99,,2016-09-30 13:14:00,
2016-09-30 07:07:00,53.0,39.0,-100.00,SSE,166,10.0,13.0,59,-99.99,,,-99.99,,2016-09-30 14:07:00,
2016-09-30 07:13:00,53.0,39.0,-100.00,SSE,166,10.0,13.0,59,-99.99,,,-99.99,,2016-09-30 14:13:00,